Location: Home
(51.5204°N, 2.5456°W)
Time: 19:08:11
(UTC+00:00)

STRAND 1 - Pass Details

Date: 14 December 2019
Orbit: 768 x 781 km, 98.5° (Epoch: 28 January)

Event Time Altitude Azimuth Distance (km) Brightness Sun altitude
Rises 05:03:49 0° 118° (ESE) 3,249 ? -27.3°
Reaches altitude 10° 05:06:39 10° 102° (ESE) 2,323 ? -26.8°
Maximum altitude 05:10:19 20° 56° (NE) 1,718 ? -26.3°
Drops below altitude 10° 05:13:59 10° 10° (N) 2,328 ? -25.7°
Enters shadow 05:16:11 - 357° (N) 3,035 ? -25.4°
